Regional Weather Roundup
Issued by NWS

Home | Current Version | Previous Version | Graphics & Text | Print | Product List | Glossary On
Versions: 1 2 3 4 5 6 7 8 9 10 11 12 13 14 15 16 17 18 19 20 21 22 23 24 25 26 27 28 29 30 31 32 33 34 35 36 37 38 39 40 41 42 43 44 45 46 47 48 49 50
000
ASUS43 KFSD 281610
RWRSD

WEATHER ROUNDUP FOR SOUTH DAKOTA
NATIONAL WEATHER SERVICE SIOUX FALLS SD
1000 AM CST SAT FEB 28 2015

NOTE: "FAIR" INDICATES FEW OR NO CLOUDS BELOW 12,000 FEET WITH NO
SIGNIFICANT WEATHER AND/OR OBSTRUCTIONS TO VISIBILITY.


SDZ001>005-009-010-012>017-281700-
NORTHWEST AND NORTH CENTRAL SOUTH DAKOTA

CITY           SKY/WX    TMP DP  RH WIND       PRES   REMARKS
BUFFALO          N/A     12   4  70 NW23      30.04R WCI  -7
FAITH            N/A     17   6  62 NW21      30.10R WCI   0
MOBRIDGE       CLOUDY    18   8  65 S10       30.09S WCI   6
$$

SDZ012>016-024>037-041>051-057-063-072>074-281700-
SOUTHWEST AND SOUTH CENTRAL SOUTH DAKOTA

CITY           SKY/WX    TMP DP  RH WIND       PRES   REMARKS
RAPID CTY ARPT SUNNY     18   4  54 N23       30.10R WCI   0
PIERRE         SUNNY     21   8  57 SW15      30.15F WCI   8
CUSTER         SUNNY     15   9  76 S3        29.94R
ELLSWORTH AFB  SUNNY     17   3  53 N20       30.09R WCI   1
PHILIP         SUNNY     24   8  50 NW13      30.14R WCI  12
PINE RIDGE     SUNNY     18   7  62 VRB5      30.11R WCI  11
WINNER         FAIR      21   6  52 SW23G31   30.19S WCI   5
$$

SDZ004>011-016>023-039-040-281700-
NORTHEAST SOUTH DAKOTA

CITY           SKY/WX    TMP DP  RH WIND       PRES   REMARKS
ABERDEEN       MOSUNNY   14   4  64 S21G26    30.23S WCI  -4
WATERTOWN      SUNNY     11   4  73 S15G21    30.26R WCI  -5
$$

SDZ017-020-022-023-036>040-048>070-281700-
SOUTHEAST SOUTH DAKOTA

CITY           SKY/WX    TMP DP  RH WIND       PRES   REMARKS
SIOUX FALLS    MOSUNNY   14   7  73 S17       30.36F WCI  -3
HURON          SUNNY     15   6  67 S13G20    30.28S WCI   1
CHAMBERLAIN    SUNNY     21   8  56 S21       30.22S WCI   6
MITCHELL       SUNNY     21   8  57 S21G26    30.31F WCI   5
YANKTON        SUNNY     19   9  63 S16       30.38F WCI   5
$$

ABBREVIATIONS USED IN REMARKS
   TC - TEMPERATURE IN CELSIUS
  WCI - WIND CHILL INDEX
   HX - HEAT INDEX
  VSB - VISIBILITY



USA.gov is the U.S. government's official web portal to all federal, state and local government web resources and services.